Temp
12 11 11 10 10 10 10 9 9 9 10 9 9 8 7 6 6 6 6 5 5 5 4 4 3 3 3 3 3 3 3 3 4 5 4 5 5 5 6 5 5 6 6
11 10 11 10 10 10 10 9 9 9 9 8 8 6 5 5 6 6 5 4 4 4 3 3 3 3 3 3 3 3 3 3 3 4 4 4 5 5 5 5 4 5 5
11 10 10 10 9 9 9 9 9 9 8 7 7 6 5 5 5 5 4 4 3 3 3 3 3 2 2 2 3 3 2 2 2 3 3 3 3 4 5 5 5 5 5
11 11 11 11 10 9 9 8 8 9 7 7 6 5 5 5 4 4 4 4 4 3 3 2 2 2 2 2 2 2 2 2 2 2 2 3 2 3 2 3 5 4 5
11 11 11 10 9 8 9 8 9 8 7 6 5 5 5 4 4 4 3 3 2 2 2 2 1 1 2 1 1 2 2 1 1 1 2 1 2 3 3 4 3 4 5
11 10 10 10 9 8 8 8 9 8 7 5 5 4 4 4 3 3 3 2 2 2 2 2 1 1 1 1 1 1 1 1 1 1 1 1 1 -0 1 3 3 3 5
11 10 10 10 9 8 8 9 8 7 6 5 5 4 3 3 3 3 2 2 2 2 2 2 3 1 1 1 1 1 1 0 -0 -0 -0 0 0 -1 -0 1 3 3 4
10 10 10 9 8 8 8 8 8 7 5 5 4 4 2 2 3 2 2 2 2 1 2 1 2 1 1 1 2 2 1 1 1 -0 -1 -0 -0 -1 -1 -0 2 3 4
10 9 9 9 8 8 7 7 8 6 5 5 4 4 4 2 2 2 2 2 1 1 1 1 1 1 1 2 2 2 2 1 1 -0 -1 -1 -1 -1 -1 0 2 3 6
9 9 9 8 8 7 7 7 6 6 5 4 4 3 3 3 3 3 2 2 1 1 1 1 1 1 1 2 2 2 2 2 1 1 1 -0 -1 -1 0 2 3 4 5
8 8 8 7 7 6 6 7 6 5 5 5 3 2 3 3 3 2 2 1 1 1 1 1 1 1 1 2 1 1 2 2 2 1 0 -0 -1 -1 1 3 4 4 6
8 7 7 6 5 5 5 5 5 5 5 4 3 2 2 3 3 2 2 1 1 1 1 1 1 1 1 1 1 1 1 1 1 1 0 -1 -1 -0 1 4 4 5 6
8 7 7 5 4 4 5 5 6 5 4 3 3 2 3 3 2 2 1 1 1 1 0 1 1 1 1 1 1 1 1 2 1 0 0 -0 -1 -0 0 4 4 5 6
7 7 6 7 6 4 4 4 4 4 3 3 3 3 3 2 2 2 1 1 0 -1 -0 -0 0 1 1 1 1 1 2 1 1 1 0 -0 -1 -1 -0 4 4 5 6
6 5 6 6 5 5 5 5 4 3 3 3 3 3 2 2 2 1 1 1 -0 -1 -1 -1 0 1 1 1 1 1 1 0 0 0 0 0 -0 -1 -1 -0 3 5 5
6 6 5 3 5 4 4 3 3 3 2 2 2 2 2 1 1 1 1 1 0 -1 -1 -0 1 1 1 1 1 1 0 1 0 0 0 -0 -0 -1 -1 -1 0 3 4
6 5 6 4 4 3 3 3 2 2 2 1 1 1 1 1 1 1 0 1 -1 -1 -1 0 1 1 1 0 0 1 1 1 1 -0 -1 -0 -0 -1 -1 -1 -0 0 3
5 5 5 4 4 3 3 2 2 1 1 1 1 1 1 0 0 0 0 -0 -1 -1 0 0 1 0 0 -0 -0 0 -0 -1 -2 -1 -1 -1 -1 -1 -0 -1 -0 0 -0
3 3 3 3 3 4 3 2 1 1 0 0 0 0 -0 0 0 -0 -0 -1 -1 -0 -0 1 1 0 -0 -0 -1 -1 -1 -1 -1 -2 -1 -0 -0 -0 -1 -1 -1 -0 -0
4 2 2 3 3 2 2 1 -0 0 0 -0 -0 -1 -1 -1 -0 -0 -0 -1 -1 -0 0 1 0 -0 -1 -1 -1 -1 -1 -1 -1 -1 -0 0 0 0 -1 -1 -1 -1 -0
3 3 2 2 2 1 0 -0 -0 -0 -1 -1 -1 -1 -1 -1 -1 -1 -0 -0 -0 -0 -0 0 -0 -1 -1 -1 -1 -1 -1 -1 -1 -0 -0 -0 -0 -0 -0 -1 -1 -1 -1
3 2 2 2 1 1 1 1 -0 -1 -1 -1 -1 -1 -1 -1 -1 -1 -1 -0 -0 -0 -0 -0 -1 -1 -1 -1 -1 -1 -1 -1 -1 -1 -1 -1 -0 -1 -1 -1 -1 -1 -1
2 1 1 1 1 1 1 0 -1 -1 -2 -2 -2 -3 -2 -2 -2 -1 -1 -1 -1 -1 -1 -1 -1 -1 -1 -1 -1 -1 -1 -1 -1 -1 -1 -1 -1 -1 -1 -1 -1 -1 -1
1 0 1 0 -0 -0 0 -0 -2 -2 -3 -2 -2 -2 -2 -1 -2 -2 -2 -1 -1 -1 -1 -1 -1 -1 -1 -2 -2 -2 -2 -2 -2 -2 -2 -2 -2 -2 -1 -1 -1 -1 -1
0 0 1 1 0 0 -0 -1 -1 -1 -2 -2 -2 -2 -2 -2 -2 -2 -2 -2 -1 -2 -2 -2 -1 -2 -2 -2 -2 -2 -2 -2 -2 -2 -2 -2 -2 -2 -2 -2 -2 -2 -1
0 -0 -0 -0 -1 -1 -1 -2 -2 -2 -2 -2 -2 -2 -2 -2 -2 -2 -2 -2 -2 -2 -2 -3 -3 -2 -2 -2 -3 -3 -3 -3 -3 -3 -3 -3 -3 -2 -2 -2 -2 -2 -2
Height
3180 3181 3183 3183 3182 3181 3179 3177 3175 3173 3170 3168 3165 3161 3158 3155 3153 3151 3149 3146 3144 3142 3139 3136 3135 3133 3131 3127 3124 3121 3117 3114 3111 3109 3104 3102 3100 3095 3092 3088 3086 3086 3089
3175 3176 3178 3178 3178 3178 3177 3174 3173 3170 3167 3164 3159 3156 3154 3151 3148 3145 3144 3141 3139 3136 3134 3131 3128 3126 3124 3120 3117 3114 3110 3107 3102 3097 3096 3091 3088 3085 3080 3077 3076 3075 3076
3170 3171 3173 3173 3172 3173 3173 3171 3168 3165 3161 3158 3155 3152 3150 3147 3144 3141 3138 3136 3133 3130 3128 3126 3123 3120 3117 3114 3110 3107 3103 3099 3096 3089 3084 3082 3077 3073 3068 3065 3063 3063 3064
3165 3166 3166 3167 3166 3167 3167 3166 3162 3159 3156 3154 3150 3148 3145 3143 3140 3137 3134 3130 3127 3124 3121 3118 3116 3113 3109 3105 3103 3099 3095 3092 3087 3082 3076 3071 3066 3062 3056 3049 3048 3049 3051
3159 3159 3161 3161 3160 3160 3161 3160 3157 3154 3152 3149 3147 3145 3142 3138 3135 3133 3129 3125 3122 3118 3115 3111 3108 3105 3101 3097 3095 3093 3088 3083 3079 3073 3067 3061 3055 3047 3043 3039 3035 3035 3037
3152 3153 3155 3155 3155 3156 3156 3154 3152 3150 3148 3146 3143 3141 3138 3134 3130 3126 3124 3121 3116 3112 3108 3104 3099 3097 3094 3091 3087 3084 3082 3076 3071 3064 3058 3052 3045 3037 3030 3027 3024 3023 3024
3144 3145 3146 3148 3148 3150 3150 3149 3147 3145 3143 3141 3138 3136 3132 3129 3125 3121 3118 3115 3111 3107 3101 3096 3091 3088 3086 3084 3081 3078 3074 3070 3065 3057 3050 3045 3035 3029 3019 3013 3011 3009 3011
3138 3140 3140 3142 3140 3143 3143 3142 3141 3140 3137 3135 3133 3129 3123 3122 3119 3116 3113 3109 3105 3101 3095 3089 3086 3083 3081 3078 3074 3071 3067 3064 3059 3052 3044 3036 3028 3018 3008 3000 2994 2992 2996
3131 3134 3136 3135 3135 3137 3137 3135 3134 3131 3129 3128 3126 3122 3119 3116 3113 3109 3106 3102 3099 3094 3089 3084 3080 3078 3075 3072 3068 3063 3060 3057 3051 3045 3038 3030 3020 3007 2996 2986 2981 2979 2982
3123 3127 3127 3128 3129 3130 3128 3127 3124 3123 3120 3119 3118 3116 3111 3107 3106 3102 3100 3095 3091 3087 3083 3077 3075 3071 3068 3065 3061 3057 3053 3049 3043 3037 3031 3023 3011 2997 2985 2976 2970 2970 2974
3118 3119 3121 3123 3123 3121 3119 3117 3116 3114 3113 3110 3109 3106 3104 3102 3100 3095 3091 3086 3083 3078 3074 3071 3069 3066 3064 3059 3054 3050 3046 3041 3036 3028 3021 3012 3001 2987 2974 2963 2962 2963 2967
3109 3110 3111 3113 3113 3108 3111 3106 3108 3107 3105 3103 3102 3100 3099 3097 3092 3088 3084 3079 3075 3072 3068 3066 3064 3061 3057 3052 3048 3044 3040 3035 3028 3022 3015 3005 2993 2978 2963 2958 2957 2958 2963
3104 3105 3101 3102 3103 3091 3071 3102 3101 3100 3098 3097 3095 3093 3091 3088 3084 3080 3077 3072 3069 3065 3063 3062 3059 3054 3050 3046 3042 3039 3034 3029 3023 3018 3012 3002 2990 2977 2963 2955 2955 2955 2961
3099 3098 3099 3096 3096 3098 3094 3092 3094 3095 3091 3088 3087 3086 3083 3081 3076 3072 3068 3064 3061 3058 3057 3056 3052 3048 3044 3041 3037 3033 3029 3024 3019 3014 3009 3001 2990 2977 2963 2955 2954 2956 2961
3092 3092 3090 3090 3089 3090 3088 3088 3089 3087 3084 3082 3080 3077 3075 3072 3067 3063 3060 3057 3054 3053 3051 3049 3046 3042 3038 3035 3032 3028 3025 3021 3016 3012 3007 3000 2992 2979 2967 2959 2954 2956 2957
3079 3080 3081 3085 3085 3083 3085 3085 3083 3080 3077 3075 3073 3071 3067 3063 3059 3056 3053 3050 3048 3046 3045 3043 3040 3036 3033 3030 3028 3024 3021 3018 3014 3010 3005 3000 2994 2985 2972 2964 2956 2953 2955
3076 3080 3072 3077 3077 3077 3078 3080 3076 3072 3069 3067 3064 3061 3059 3056 3052 3050 3048 3044 3041 3041 3040 3038 3035 3032 3029 3027 3024 3021 3017 3013 3011 3007 3004 2999 2995 2988 2978 2970 2963 2957 2953
3070 3068 3069 3070 3071 3071 3070 3067 3066 3063 3059 3058 3055 3053 3051 3050 3047 3043 3042 3038 3036 3036 3035 3032 3030 3027 3025 3023 3020 3017 3013 3009 3007 3005 3003 2999 2995 2990 2985 2977 2970 2964 2958
3064 3063 3065 3065 3062 3062 3060 3058 3057 3054 3052 3050 3048 3045 3045 3044 3042 3039 3036 3034 3033 3031 3030 3028 3025 3023 3021 3017 3015 3013 3010 3006 3004 3002 3000 2998 2994 2991 2987 2983 2978 2972 2968
3054 3054 3055 3055 3052 3051 3050 3047 3045 3044 3043 3042 3040 3040 3039 3039 3038 3035 3033 3031 3029 3027 3025 3023 3020 3018 3016 3014 3011 3010 3007 3004 3001 2999 2997 2995 2993 2990 2988 2985 2983 2980 2976
3049 3048 3045 3045 3045 3043 3042 3039 3038 3038 3038 3037 3035 3035 3033 3032 3031 3029 3027 3026 3024 3022 3019 3018 3016 3014 3012 3010 3008 3006 3004 3001 2999 2997 2994 2993 2991 2989 2987 2985 2984 2981 2979
3040 3039 3039 3038 3036 3036 3036 3035 3034 3033 3033 3031 3029 3028 3027 3026 3025 3024 3022 3020 3018 3017 3014 3013 3012 3010 3008 3007 3005 3003 3002 3000 2998 2996 2994 2992 2991 2989 2987 2985 2984 2983 2982
3033 3032 3032 3031 3030 3029 3029 3027 3026 3026 3026 3024 3023 3021 3020 3020 3019 3017 3016 3014 3013 3011 3010 3009 3008 3006 3004 3003 3002 3001 3000 2999 2997 2995 2994 2992 2991 2989 2987 2986 2984 2984 2983
3025 3024 3024 3023 3022 3022 3021 3020 3020 3019 3018 3017 3016 3015 3013 3013 3013 3011 3009 3008 3008 3007 3005 3004 3004 3003 3002 3001 3000 3000 2999 2998 2996 2995 2994 2993 2991 2990 2988 2986 2985 2984 2983
3016 3016 3017 3016 3016 3015 3014 3013 3012 3012 3011 3008 3009 3009 3008 3007 3006 3006 3004 3002 3003 3003 3002 3001 3000 3000 3000 2999 2998 2998 2998 2997 2995 2994 2993 2992 2990 2988 2988 2987 2986 2985 2984
3008 3008 3008 3008 3008 3007 3008 3007 3006 3006 3005 3003 3002 3002 3001 3001 2999 2999 2999 2998 2998 2999 2998 2998 2998 2998 2997 2997 2996 2995 2995 2995 2994 2992 2991 2990 2989 2987 2987 2986 2985 2985 2985
Wind_Speed
26 27 25 26 25 21 19 20 23 27 29 25 22 20 16 15 16 17 18 17 17 17 18 20 19 21 25 28 30 28 29 29 32 32 36 34 33 34 35 33 37 45 44
26 27 23 27 28 25 21 20 22 25 27 24 21 18 16 15 16 18 18 17 17 17 17 21 23 26 27 27 28 29 29 30 33 37 38 37 36 34 36 36 32 43 45
29 25 26 28 27 26 24 21 22 25 24 19 17 15 14 16 19 21 18 16 18 19 19 23 24 26 26 26 27 27 28 30 33 39 40 40 41 42 42 39 32 39 45
27 26 26 26 27 26 25 20 21 24 21 18 15 16 15 18 20 19 19 20 18 20 22 22 24 25 25 26 27 27 28 31 36 38 39 43 47 40 39 38 35 35 44
28 29 26 25 26 25 23 20 22 22 19 17 16 15 18 21 21 20 21 22 22 23 23 24 24 24 26 27 29 28 29 33 36 35 40 41 46 46 42 33 34 35 42
30 32 29 28 24 24 19 19 21 19 16 14 16 17 18 23 24 21 25 24 24 26 27 27 27 26 26 26 27 27 29 32 33 38 41 44 50 51 43 34 33 34 41
31 32 32 28 29 17 16 18 17 15 17 17 19 18 20 23 28 24 28 26 26 22 26 28 27 24 27 24 27 28 28 29 31 39 42 45 53 52 49 44 39 36 43
32 30 29 26 19 15 15 16 16 19 20 18 18 17 21 22 30 30 28 27 25 26 31 25 20 17 21 25 27 27 29 31 32 36 40 45 52 54 45 48 44 36 44
33 31 27 25 19 14 13 16 19 20 20 22 19 27 25 23 30 31 25 30 25 23 29 29 28 26 23 26 27 28 27 29 32 36 39 46 53 41 40 45 43 33 42
30 27 24 21 17 12 13 17 19 18 19 25 23 25 29 33 30 26 30 26 24 29 36 30 27 26 27 29 28 27 27 29 33 36 38 44 45 34 34 34 36 29 37
24 22 18 17 12 9 14 19 18 19 27 28 31 27 31 32 28 26 29 24 27 31 26 21 25 28 28 25 24 25 28 32 35 34 39 45 44 37 29 19 20 28 35
22 16 25 25 21 24 14 19 20 29 31 26 27 29 33 33 28 25 24 23 29 27 19 19 22 24 23 21 22 23 29 34 33 31 38 38 42 41 30 15 18 22 31
25 24 32 34 29 30 10 21 32 32 29 29 29 30 31 31 25 24 25 26 26 26 24 21 23 23 20 19 23 28 30 31 29 28 33 38 43 36 35 5 10 18 26
28 30 23 33 42 12 15 17 28 32 30 27 30 32 31 27 25 27 25 26 26 24 24 23 24 23 20 23 25 28 28 27 25 26 28 34 40 32 40 6 10 14 24
26 20 20 23 15 16 15 19 23 27 30 27 29 29 28 25 25 26 24 27 23 23 24 21 23 23 22 21 24 25 23 23 21 21 22 27 35 36 37 34 4 12 17
32 24 21 13 14 11 16 21 23 25 25 26 26 26 26 23 25 27 28 29 25 22 21 22 22 23 22 20 20 20 18 17 17 17 22 26 29 37 37 30 30 6 17
27 27 12 12 13 15 17 21 21 23 25 25 26 25 22 24 25 26 27 27 21 19 19 21 21 21 21 20 17 18 17 15 14 17 19 20 24 27 32 31 29 26 9
17 14 12 13 14 17 18 20 20 22 25 26 22 22 21 21 22 26 22 20 17 15 16 19 21 21 20 20 18 16 16 17 16 15 17 20 19 20 25 28 26 33 27
12 11 15 17 18 21 21 20 23 21 20 21 21 22 20 18 18 19 21 15 15 13 19 21 21 21 18 18 16 14 14 14 14 16 17 18 17 16 17 21 22 24 25
29 13 22 28 24 21 24 23 22 25 25 20 19 20 21 22 20 20 17 15 15 19 22 22 21 18 15 15 14 14 13 15 16 17 17 15 15 15 11 12 15 12 19
16 23 24 24 24 21 21 22 26 29 19 17 15 18 19 21 18 17 16 16 16 18 19 18 18 16 14 13 13 12 12 12 13 14 14 14 12 11 10 7 10 14 15
27 26 27 25 23 22 24 26 29 23 22 17 21 21 19 17 18 17 18 17 16 16 16 15 14 13 12 10 10 10 10 10 10 10 11 12 11 11 9 8 7 8 9
23 23 24 26 24 23 25 26 23 22 22 20 21 21 22 18 18 18 18 17 15 13 13 12 10 9 8 8 7 7 8 8 8 8 9 10 10 10 10 9 8 7 6
26 22 22 21 22 23 22 22 23 26 22 24 21 22 21 19 19 18 18 17 13 11 11 9 7 6 6 6 5 5 6 6 7 8 8 8 9 9 9 9 9 8 6
23 23 24 24 23 21 20 21 22 20 19 20 19 21 22 21 20 16 15 15 12 9 8 7 5 4 5 6 7 6 5 5 7 8 8 8 8 8 8 7 7 7 8
23 22 22 23 21 20 19 18 17 16 16 20 23 22 20 18 17 14 11 11 10 7 6 6 5 6 7 8 8 8 7 6 7 8 8 8 8 9 8 8 8 6 5
Wind_Direction
259 265 270 278 276 288 305 319 327 332 334 329 333 331 333 328 324 319 315 312 307 301 304 302 303 299 302 302 303 302 300 299 300 301 302 303 302 296 293 296 255 243 242
265 266 275 279 269 275 293 307 317 326 330 333 338 334 330 329 328 330 326 316 310 308 304 298 300 306 305 302 301 299 299 301 305 305 307 306 304 300 297 296 267 243 240
267 267 272 280 274 270 284 300 313 326 331 336 335 331 325 326 325 327 329 319 305 301 298 293 294 298 299 299 299 300 298 301 307 308 308 312 312 309 299 286 273 247 241
263 263 266 276 281 270 277 298 314 326 328 332 336 342 338 343 335 324 322 327 325 315 310 305 302 303 303 302 301 302 298 301 305 308 309 309 316 311 307 298 269 248 241
257 260 267 275 277 266 272 300 315 322 321 323 326 330 333 336 332 324 326 327 322 317 310 306 301 304 303 302 301 298 297 300 304 307 309 314 321 312 307 290 282 253 235
258 258 262 271 262 255 270 295 311 319 316 324 331 323 333 327 327 326 323 320 311 318 316 305 294 289 292 302 304 302 299 303 304 307 309 313 319 320 306 297 278 264 239
262 263 264 267 270 242 270 292 311 322 328 323 314 317 329 321 325 322 317 308 306 316 323 318 305 289 285 297 302 301 301 304 302 311 312 315 311 311 306 297 288 266 245
259 260 279 271 265 242 273 293 313 333 330 319 300 291 314 318 324 312 305 303 303 305 320 305 308 307 299 303 300 300 302 306 303 311 312 317 313 315 304 295 290 267 240
260 264 271 263 232 243 278 305 321 330 321 310 290 278 312 309 309 307 308 307 292 299 325 303 296 301 309 307 303 303 309 309 308 309 315 318 318 314 307 296 288 264 234
260 267 266 248 216 249 289 306 319 319 311 304 298 313 307 315 308 317 311 304 291 299 303 298 287 297 300 303 305 306 310 313 311 311 312 317 328 326 308 282 269 259 234
259 264 245 213 241 283 317 315 313 297 304 298 296 317 309 298 304 309 304 297 306 314 304 290 283 293 302 305 305 312 317 317 317 314 316 325 329 346 318 269 261 256 227
238 207 203 216 225 233 289 312 291 293 303 295 300 304 312 299 307 306 302 292 305 305 307 299 294 301 307 308 310 315 318 321 322 320 325 322 337 354 345 276 270 238 220
247 235 229 231 239 269 245 281 288 291 295 292 301 301 301 301 305 307 306 305 300 300 291 293 303 309 316 318 312 313 318 322 324 324 329 334 346 354 359 256 262 225 214
245 248 267 298 264 331 331 296 283 288 294 295 294 289 303 301 306 309 311 308 300 294 289 299 306 310 306 307 310 314 318 323 324 327 332 341 348 5 18 306 271 223 211
254 265 313 318 323 327 300 283 281 288 291 285 291 298 297 299 303 305 305 312 302 294 294 298 305 309 308 313 312 314 321 318 323 325 332 342 350 3 14 34 45 213 217
235 244 288 289 296 289 284 284 283 282 284 289 289 288 296 298 299 299 302 307 303 292 285 300 308 314 317 315 311 312 313 315 324 331 340 346 352 351 6 21 46 66 214
297 287 286 274 287 287 277 272 276 277 281 282 289 295 296 297 295 298 300 308 297 282 287 300 312 318 318 313 310 307 311 315 319 324 340 352 349 353 354 17 37 55 82
295 285 295 293 288 289 286 287 281 284 280 290 290 289 294 295 295 303 314 320 284 290 305 311 312 312 310 306 304 307 312 320 324 330 324 326 340 352 351 15 29 29 46
284 274 274 291 295 301 303 290 292 292 290 288 291 289 288 293 295 299 308 321 286 293 315 317 315 313 309 306 308 312 316 317 319 315 328 334 335 341 345 0 31 56 32
263 262 300 298 303 305 302 301 297 306 304 295 284 283 290 293 290 288 286 292 283 284 298 308 311 312 309 302 303 309 317 323 325 324 329 338 339 343 345 352 9 45 33
287 281 285 293 295 298 301 296 296 306 289 285 277 283 291 292 293 293 293 291 291 294 296 299 302 305 303 307 307 312 319 325 328 329 335 340 346 349 360 359 349 7 31
302 280 289 297 301 294 290 287 291 287 286 275 277 273 286 289 291 296 297 299 303 299 293 293 296 296 304 309 311 321 328 330 337 340 343 349 354 355 353 357 347 341 352
283 280 283 280 278 282 283 285 281 273 284 271 288 290 290 298 295 296 297 299 302 296 291 293 295 301 313 320 325 325 332 336 342 349 351 355 2 5 5 9 360 342 335
286 279 267 268 277 280 278 270 264 274 275 276 287 286 298 298 297 300 297 293 290 290 286 288 293 306 321 332 338 337 333 331 327 331 337 341 346 355 3 11 12 20 11
283 281 281 277 270 269 269 269 274 276 281 283 287 294 294 291 294 298 291 283 284 279 272 277 279 302 316 320 322 324 322 319 315 313 317 322 324 326 343 352 8 15 21
281 273 269 269 272 269 271 276 280 283 283 288 296 297 291 292 296 295 285 275 269 257 256 247 273 287 297 304 308 310 311 312 307 303 303 302 305 307 314 323 330 342 353